Starlink 2612

operational
NORAD ID: 48379 Int'l Des: 2021-038 Owner: SPXS Country: US Constellation: starlink
LEOCIRCULARSTARLINK_TYPE

About Starlink 2612

Description loading...

Live Position

Loading 3D Globe...

Upcoming Passes

Altitude History

Altitude vs Time

uPlot chart will show altitude changes over time

Two-Line Element Set

1 48379U 21038AC 25276.55632760 -.00000890 00000-0 -40921-4 0 9990
2 48379 53.0536 337.0164 0001263 88.8563 271.2570 15.06380672243482
Epoch: Oct 3, 2025 • Age: 41 hours

Current Status

Altitude 555.6 km
Velocity 7.58 km/s
Sub-Earth Point -26.45°S, 165.8°W
Launch Date May 4, 2021
Age 4.4 years
Type internet

Technical Details

Classification Payload
Mass 260.00 kg
Dry Mass 248.00 kg
Total Mass 260.00 kg
Length 0.20 m
Diameter 2.80 m
Span 9.00 m
Shape Box + pan
Manufacturer SPXS
Bus Type Starlink
Phase Status In Orbit
Owner/State SPXS/US

Large Constellations

Loading constellations...